Regional Weather Roundup
Issued by NWS Charleston, SC

Current Version | Previous Version | Text Only | Print | Product List | Glossary Off
Versions: 1 2 3 4 5 6 7 8 9 10 11 12 13 14 15 16 17 18 19 20 21 22 23 24 25 26 27 28 29 30 31 32 33 34 35 36 37 38 39 40 41 42 43 44 45 46 47 48 49 50

000
ASUS42 KCHS 301028
RWRCHS

REGIONAL WEATHER ROUNDUP
NATIONAL WEATHER SERVICE CHARLESTON SC
600 AM EDT SAT JUL 30 2016

NOTE: "FAIR" INDICATES FEW OR NO CLOUDS BELOW 12,000 FEET WITH NO
SIGNIFICANT WEATHER AND/OR OBSTRUCTIONS TO VISIBILITY.

NOT ALL STATIONS ARE QUALITY CONTROLLED. USE DATA WITH CAUTION...
ESPECIALLY DEWPOINT OBSERVATIONS.

SCZ027-030-031-034>040-042>050-301100-
...SOUTHEAST SOUTH CAROLINA...

CITY           SKY/WX    TMP DP  RH WIND       PRES   REMARKS
N CHARLESTON   CLEAR     82  75  79 SW7       29.95R
WATERFRONT PRK   N/A     84  77  79 SW5       29.91S HX  94
MOUNT PLEASANT FAIR      82  75  78 CALM      29.95R
JOHNS ISLAND   FAIR      82  75  78 SW7       29.95R
PINOPOLIS        N/A     82  77  83 SW7       29.87R HX  91
MONCKS CORNER  FAIR      75  72  88 CALM      29.96R
SUMMERVILLE    NOT AVBL
BEAUFORT MCAS  PTCLDY    80  71  74 W6        29.96R
BEAUFORT ARPT  FAIR      81  72  74 SW7       29.96R
HILTON HEAD IS NOT AVBL
WALTERBORO     SUNNY     79  77  94 CALM      29.98R
ALLENDALE      FAIR      75  72  88 CALM      29.97R

...SOUTHERN MIDLANDS AND PEE DEE...

CITY           SKY/WX    TMP DP  RH WIND       PRES   REMARKS
GEORGETOWN     FAIR      77  77 100 SW5       29.95R
KINGSTREE      FAIR      73  72  94 CALM      29.95R
ORANGEBURG     CLEAR     76  72  87 CALM      29.96R
BARNWELL       NOT AVBL
AIKEN          FAIR      73  70  88 SW3       30.01R
MANNING        FAIR      73  72  94 CALM      29.95R
COLUMBIA       CLEAR     77  70  79 CALM      29.94R
SUMTER         CLEAR     75  73  94 S3        29.93R FOG
FLORENCE       CLEAR     75  73  93 S3        29.94R
MYRTLE BEACH   NOT AVBL
N MYRTLE BEACH CLEAR     82  79  90 SW7       29.93S HX  92

$$

GAZ063-065-086>088-099>101-113>116-118-119-134>141-150-301100-
...SOUTHEAST GEORGIA...

CITY           SKY/WX    TMP DP  RH WIND       PRES   REMARKS
SAVANNAH ARPT  PTCLDY    79  70  74 W7        29.97S
HUNTER AAF     CLEAR     78  74  85 SW7       29.95S
FORT STEWART   CLEAR     78  71  80 SW3       29.96R
STATESBORO     CLEAR     78  73  84 W5        29.99R
SYLVANIA       NOT AVBL
CLAXTON        FAIR      75  73  93 SW3       29.99R

...CSRA...CENTRAL AND FAR SOUTHEAST GEORGIA...

CITY           SKY/WX    TMP DP  RH WIND       PRES   REMARKS
THOMSON        NOT AVBL
AUGUSTA-BUSH   CLEAR     75  70  84 CALM      29.95R
AUGUSTA-DANIEL CLEAR     80  69  69 CALM      29.97R
SWAINSBORO     FAIR      75  70  83 CALM      30.00R
VIDALIA        CLEAR     77  72  83 CALM      30.01R
EASTMAN        FAIR      78  65  65 CALM      30.02R
HAZLEHURST     FAIR      79  75  89 CALM      30.00R
ALMA           CLEAR     75  72  90 CALM      29.99S
WAYCROSS       PTCLDY    76  76  98 CALM      30.00S
JESUP          FAIR      73  73 100 CALM      30.00R
BAXLEY         FAIR      77  77 100 CALM      30.00R
BRUNSWICK      CLEAR     79  77  94 W7        30.00R
SAINT SIMONS   CLEAR     80  75  84 W7        29.98S

$$

SCZ027-028-034-036>038-045-046-048>050-GAZ119-141-301100-
...LAKE AND SUPPLEMENTAL COASTAL OBSERVATIONS...

STATION/POSITION TIME  TEMP    WIND        PRES    WAVE   SWELL
                       AIR SEA DIR/SP/G            HT/PER HT/PER/DIR
                 (UTC) (F)     (DEG/KT/KT) (MB)    (FT/S) (FT/S/D)
WINYAH BAY       0900   82     240/  4     1013.0
LAKE MURRAY      0900   82     250/  4/  6 1012.9S
ACE BASIN NERRS  0900   81        CALM     1014.0S
FORT PULASKI     1000   82 87  270/  9/ 12 1015.1S
SAPELO ISLAND    1000   81     250/  7     1015.0S

$$

ANZ835-935-AMZ111-154-330-350-352-354-370-450-454-472-301100-
...C-MAN AND BUOY OBSERVATIONS...

STATION/POSITION TIME  TEMP    WIND        PRES    WAVE   SWELL
                       AIR SEA DIR/SP/G            HT/PER HT/PER/DIR
                 (UTC) (F)     (DEG/KT/KT) (MB)    (FT/S) (FT/S/D)
BUOY 41004       0950   86 86  240/ 16/ 19 1013.3R   4/ 5
BUOY 41008       0950   85 86  260/ 14/ 16 1014.6R   3/ 4   2/ 90/ 8
FOLLY BEACH CMAN 1000   84     250/  7/ 10 1014.0R
CAPERS NEARSHORE 1008   86 85  260/ 14/ 17 1013.6R
FRIPP NEARSHORE  1008   85 87  270/ 14/ 17 1013.9R


STATION/POSITION TIME  TEMP    WIND        PRES    WAVE   SWELL
                       AIR SEA DIR/SP/G            HT/PER HT/PER/DIR
                 (UTC) (F)     (DEG/KT/KT) (MB)    (FT/S) (FT/S/D)
5E ST. MARYS GA  1001      85                N/A     2/ 4
FRYING PAN BUOY  1000   85 85  240/ 16/ 17 1013.6R
BUOY 41025       0950   83 86   10/  4/  6 1014.0R   2/ 6   2/210/ 6
CAPE LOOKOUT NC  1000   83     310/  3/  4 1013.6R
BUOY 41002       0950   84 84  200/ 10/ 12 1016.4R   3/ 6   3/230/ 6
BUOY 41010       0920   85 86  200/ 10/ 12 1016.3S
ST AUGUSTINE FL  1000   78 84  220/  4/  5 1017.2R


$$



USA.gov is the U.S. government's official web portal to all federal, state and local government web resources and services.